This is the latest recevied weather packets stored in our database for station/object AJ1L. If no packets are shown the sender has not sent any weather packets the latest 10 day(s).
| Time | Temp. | Humidity | Pressure | Rain* | Wind** | Luminosity | Snow |
|---|---|---|---|---|---|---|---|
| 1788401215 | 16.67° C | 90% | 1019.5 hPa | 0 mm | - | - | - |
| 1788400216 | 16.67° C | 90% | 1019.3 hPa | 0 mm | - | - | - |
| 1788399214 | 17.22° C | 90% | 1019.5 hPa | 0 mm | - | - | - |
| 1788398221 | 17.22° C | 89% | 1020 hPa | 0 mm | - | - | - |
| 1788397214 | 17.22° C | 88% | 1019.9 hPa | 0 mm | - | - | - |
| 1788396214 | 17.78° C | 88% | 1019.9 hPa | 0 mm | - | - | - |
| 1788395216 | 17.78° C | 87% | 1020 hPa | 0 mm | - | - | - |
| 1788394214 | 18.33° C | 86% | 1020.4 hPa | 0 mm | - | - | - |
| 1788393214 | 18.33° C | 84% | 1020.6 hPa | 0 mm | - | - | - |
| 1788392215 | 18.89° C | 84% | 1020.4 hPa | 0 mm | - | - | - |
| 1788391214 | 18.89° C | 83% | 1020.4 hPa | 0 mm | - | - | - |
| 1788390214 | 19.44° C | 81% | 1020.6 hPa | 0 mm | - | - | - |
| 1788389215 | 20° C | 79% | 1020.7 hPa | 0 mm | - | - | - |
| 1788388214 | 20° C | 77% | 1020.8 hPa | 0 mm | - | - | - |
| 1788387215 | 20° C | 77% | 1020.8 hPa | 0 mm | - | - | - |
| 1788386215 | 20.56° C | 75% | 1020.7 hPa | 0 mm | - | - | - |
| 1788385214 | 20.56° C | 74% | 1020.3 hPa | 0 mm | - | - | - |
| 1788384214 | 21.11° C | 71% | 1020.3 hPa | 0 mm | - | - | - |
| 1788383218 | 21.67° C | 67% | 1020.7 hPa | 0 mm | - | - | - |
| 1788382214 | 21.67° C | 67% | 1020.7 hPa | 0 mm | - | - | - |
| 1788381214 | 21.67° C | 62% | 1020.8 hPa | 0 mm | - | - | - |
| 1788380214 | 22.22° C | 60% | 1020.7 hPa | 0 mm | - | - | - |
| 1788379220 | 22.78° C | 57% | 1020.8 hPa | 0 mm | - | - | - |
| 1788377214 | 22.78° C | 56% | 1021.2 hPa | 0 mm | - | - | - |
| 1788376214 | 22.22° C | 58% | 1021.2 hPa | 0 mm | - | - | - |
* Rain latest hour (hover to see other rain measurements)
** Current wind speed in m/s (hover to see current wind gust speed)